Location: L��paisse
(47.2985°N, 0.1344°E)
Time: 23:05:07
(UTC+00:00)

Daily predictions for brighter satellites

Satellite Brightness Start Highest point End
(mag) Time Altitude Azimuth Time Altitude Azimuth Time Altitude Azimuth
FengYun 1-2 T 4.5 16:33:03 10° SE 16:38:23 49° ENE 16:43:43 10° N
Cosmos 2369 4.1 16:33:25 10° NNW 16:38:51 42° NE 16:44:15 10° SE
SJ 16-02 3.5 16:35:36 10° NW 16:39:30 31° WSW 16:43:22 10° SSW
Meteor PRIRODA 3.6 16:42:26 10° SSE 16:46:01 64° ENE 16:49:37 10° N
ERBS 4.0 16:43:57 10° WNW 16:46:28 21° NNW 16:49:01 10° NNE
SL-16 R/B 3.7 16:43:12 10° N 16:46:38 16° NE 16:50:03 10° ENE
NOAA 12 4.1 16:41:35 10° SSE 16:46:51 67° ENE 16:52:08 10° N
CORIOLIS 4.5 16:45:20 10° SE 16:50:26 45° ENE 16:55:35 10° N
Cosmos 2082 Rocket 3.1 16:46:32 10° SSE 16:51:20 29° ESE 16:56:08 10° NE
Meteor 1-25 Rocket 4.2 16:49:46 10° N 16:55:19 64° ENE 17:00:53 10° SSE
Cosmos 468 Rocket 4.0 16:51:21 10° SSW 16:56:29 73° ESE 17:01:42 10° NNE
Cosmos 1500 Rocket 3.5 16:52:14 10° N 16:56:41 79° E 17:01:04 10° SSE
USA 306 3.9 16:56:10 10° WNW 17:00:01 32° N 17:03:34 12° ENE
Cosmos 1464 Rocket 4.5 16:54:43 10° SSW 17:01:04 69° W 17:07:27 10° N
Cosmos 1898 Rocket 3.5 16:56:43 10° NNW 17:02:00 88° ENE 17:07:13 10° SSE
Cosmos 2278 4.2 16:57:10 10° NNW 17:02:29 37° NE 17:07:44 10° ESE
Cosmos 1818 4.4 16:58:20 10° NNW 17:03:09 30° NE 17:07:56 10° E
CZ-4B DEB 4.4 16:57:59 10° SE 17:03:17 50° ENE 17:08:34 10° N
Cosmos 1602 3.8 16:59:58 10° N 17:03:46 54° ENE 17:07:34 10° SSE
Sich 1 3.3 16:59:46 10° N 17:03:54 43° ENE 17:08:01 10° SSE
Cosmos 2221 3.4 16:59:49 10° SSW 17:04:00 51° WNW 17:08:13 10° N
Cosmos 1939 Rocket 2.9 17:00:48 10° SSE 17:04:52 65° ENE 17:08:55 10° N
Nadezhda 4 Rocket 4.3 16:59:27 10° NNW 17:05:48 76° W 17:12:06 10° S
ARGOS 4.1 17:02:31 10° ESE 17:06:52 25° ENE 17:11:13 10° N
Cosmos 1805 Rocket 3.5 17:04:18 10° N 17:08:37 62° ENE 17:12:54 10° SSE
Cosmos 1833 Rocket 2.7 17:05:20 10° SSW 17:10:57 84° ESE 17:16:37 10° NNE
COSMOS 2406 3.2 17:09:11 10° SSW 17:14:53 71° ESE 17:20:36 10° NNE
NOSS 2-2 (C) 4.3 17:10:52 10° NW 17:15:55 72° NE 17:23:03 10° SE
deb Chang Zheng 4 4.4 17:14:24 10° ESE 17:18:04 28° ENE 17:21:44 10° N
USA 307 3.9 17:15:26 10° WNW 17:19:18 33° N 17:21:59 17° ENE
CZ-2C R/B 3.7 17:16:36 10° S 17:21:23 55° W 17:26:05 10° NNW
USA 267 3.3 17:16:34 12° NE 17:22:40 88° SE 17:29:13 10° SW
Cosmos 1782 2.8 17:18:54 10° S 17:22:49 57° E 17:26:44 10° NNE
Cosmos 1092 Rocket 4.0 17:16:29 10° N 17:22:52 88° ENE 17:29:13 10° S
Cosmos 1428 Rocket 4.4 17:17:26 10° N 17:23:36 79° E 17:29:46 10° SSE
CZ-2C R/B 3.3 17:22:21 10° NNE 17:26:57 31° E 17:31:31 10° SSE
Cosmos 1763 Rocket 4.0 17:22:57 10° SW 17:27:57 60° WNW 17:33:02 10° NNE
Cosmos 1500 3.0 17:24:45 10° N 17:28:29 67° ENE 17:32:12 10° SSE
CZ-2D R/B 3.3 17:25:34 10° SSE 17:29:19 56° ENE 17:33:04 10° N
CZ-4C R/B 3.0 17:22:58 10° NW 17:30:01 66° NE 17:38:19 10° SE
H-2A R/B 2.0 17:27:32 10° SSE 17:32:35 60° ENE 17:37:32 10° N
CZ-4B R/B 3.3 17:28:54 10° SE 17:34:05 48° ENE 17:39:11 10° N
Cosmos 841 Rocket 3.4 17:30:09 10° SSW 17:35:18 75° ESE 17:40:22 10° NNE
PAYLOAD B 4.2 17:30:18 10° SSE 17:35:52 71° ENE 17:41:27 10° N
ATLAS CENTAUR R/B 4.0 17:34:57 10° NW 17:36:29 11° NNW 17:38:03 10° N
Cosmos 1937 Rocket 4.1 17:35:01 10° NNW 17:40:18 62° WSW 17:45:31 10° S
USA 308 3.8 17:38:05 10° WNW 17:41:59 34° N 17:43:39 25° NE
SMAP 3.7 17:37:36 10° S 17:42:12 59° W 17:46:49 10° NNW
Lacrosse 5 rocket 1.7 17:39:37 10° NW 17:43:20 42° NNE 17:44:49 29° ENE
COSMO-SKYMED 1 3.0 17:41:39 19° NE 17:44:20 39° E 17:48:24 10° SSE
Cosmos 2142 Rocket 4.5 17:38:33 10° S 17:44:35 62° E 17:50:44 10° NNE
Cosmos 1125 Rocket 4.2 17:40:13 10° N 17:44:55 32° ENE 17:47:31 21° ESE
Cosmos 921 Rocket 4.0 17:42:05 10° SSE 17:45:22 24° E 17:45:22 24° E
COSMOS 2455 2.8 17:41:33 10° SSW 17:47:35 87° ESE 17:52:29 16° NE
Cosmos 372 Rocket 4.1 17:42:59 10° NNW 17:48:15 81° WSW 17:53:30 10° SSE
Cosmos 2279 Rocket 3.9 17:43:53 10° S 17:50:00 64° E 17:56:08 10° NNE
ATLAS 2AS CENTAUR R/B 4.3 17:44:28 10° NW 17:50:13 22° N 17:54:01 15° NE
Cosmos 1633 Rocket 3.0 17:46:40 10° N 17:51:01 62° ENE 17:55:21 10° SSE
ISS -3.3 17:47:45 10° WNW 17:51:06 60° SSW 17:53:03 22° SE
Cosmos 2360 Rocket 3.5 17:48:02 10° N 17:52:12 21° NE 17:52:12 21° NE
Cosmos 44 Rocket 3.4 17:48:30 10° NNW 17:53:20 52° NE 17:56:04 24° ESE
Cosmos 2266 Rocket 4.3 17:47:40 10° N 17:53:43 43° ENE 17:59:46 10° SE
YAOGAN 1 4.2 17:56:49 19° NNE 17:56:49 19° NNE 17:58:22 10° N
USA 234 3.5 17:50:11 10° SE 17:56:43 70° SW 18:03:15 10° NW
SL-24 R/B - RUBIN 2 4.2 17:52:34 10° NW 17:57:00 57° WSW 18:01:13 10° SSE
Meteor 1-11 Rocket 4.2 17:52:15 10° N 17:57:28 37° ENE 18:02:44 10° SE
Cosmos 1666 2.4 17:54:03 10° N 17:57:47 81° E 18:01:30 10° S
Cosmos 1151 Rocket 2.9 17:56:34 10° S 18:00:53 81° E 18:04:41 14° NNE
PSLV R/B 4.5 17:57:51 10° S 18:01:27 52° W 18:05:08 10° NNW
CZ-4 R/B 4.3 18:02:54 10° SSE 18:06:59 66° ENE 18:11:06 10° N
USA 305 3.5 18:04:11 10° NW 18:08:12 39° NNE 18:08:40 38° NNE
Cosmos 1634 Rocket 4.5 18:02:10 10° SSW 18:08:27 64° WNW 18:14:45 10° N
SKYMED 3 4.4 18:06:03 25° NNE 18:08:33 70° ESE 18:12:51 10° S
Cosmos 1900 4.3 18:05:42 10° SSW 18:10:28 59° ESE 18:11:48 43° ENE
Okean O Rocket 1.5 18:08:23 10° SSE 18:12:50 80° ENE 18:17:19 10° NNW
Cosmos 2322 Rocket 2.6 18:07:59 10° NNW 18:13:19 39° NE 18:13:54 38° ENE
Feng Yun 1-1 Rocket 4.4 18:08:20 10° SE 18:14:07 58° ENE 18:19:51 10° N
Meteor 2-15 4.4 18:08:42 10° S 18:14:42 62° E 18:20:43 10° NNE
Landsat 5 3.3 18:16:56 59° ESE 18:16:56 59° ESE 18:20:51 10° S
Cosmos 1666 Rocket 4.2 18:13:23 10° NNW 18:17:46 58° W 18:22:04 10° S
Cosmos 1980 Rocket 3.1 18:13:09 10° NW 18:18:35 49° WSW 18:23:57 10° S
Cosmos 1812 3.5 18:17:24 10° SSW 18:21:09 51° WNW 18:23:53 17° N
Cosmos 1470 Rocket 3.4 18:16:40 10° N 18:21:09 76° E 18:25:37 10° SSE
Cosmos 1328 Rocket 3.5 18:17:10 10° S 18:21:36 87° WNW 18:24:02 27° N
SJ-11-01 4.3 18:18:00 10° SSE 18:22:45 82° WSW 18:27:31 10° NNW
SL-16 R/B 2.1 18:26:13 10° NNW 18:31:54 66° ENE 18:33:21 48° ESE
SKYMED 2 3.8 18:30:16 28° N 18:32:29 67° WNW 18:36:47 10° SSW
Cosmos 1570 Rocket 4.2 18:27:30 10° SSW 18:32:43 69° WNW 18:35:28 28° N
Cosmos 1814 Rocket 4.5 18:29:23 10° SW 18:34:32 58° WNW 18:37:30 25° N
Meteor 2-8 Rocket 4.5 18:28:59 10° SSW 18:35:08 80° W 18:41:21 10° N
Cosmos 2082 Rocket 2.9 18:29:38 10° SW 18:35:09 50° WNW 18:38:46 21° N
Cosmos 1655 Rocket 3.9 18:28:55 10° N 18:35:21 86° E 18:41:44 10° S
Cosmos 2298 Rocket 3.9 18:30:00 10° NNW 18:35:22 87° ENE 18:38:49 23° SSE
ATLAS CENTAUR R/B 3.1 18:29:36 10° WSW 18:36:49 41° NW 18:37:45 36° N
USA 306 3.7 18:36:23 10° NW 18:39:34 41° NNW 18:39:34 41° NNW
CZ-2C R/B 3.8 18:40:52 10° SSW 18:42:01 12° S 18:42:01 12° S
Cosmos 2333 Rocket 3.8 18:40:21 10° N 18:42:44 20° N 18:42:44 20° N
ARGOS 3.8 18:41:30 10° S 18:46:47 55° W 18:52:07 10° NNW
Cosmos 1818 3.9 18:41:42 10° NW 18:47:09 66° WSW 18:49:42 31° SSE
NOAA 15 4.5 18:44:29 10° SSE 18:49:47 89° WSW 18:55:06 10° NNW
GEOS 3 Rocket 3.5 18:54:52 79° NNE 18:54:52 79° NNE 18:59:53 10° NW
USA 307 4.4 18:55:35 10° NW 18:58:01 31° NW 18:58:01 31° NW
Meteor 1-27 Rocket 4.0 18:57:35 10° S 19:01:42 52° S 19:01:42 52° S
USA 267 3.9 19:03:55 40° NNE 19:05:23 46° NNW 19:11:32 10° W
Cosmos 2219 Rocket 4.1 19:00:49 10° N 19:02:19 17° N 19:02:19 17° N
CZ-2C R/B 3.8 19:03:18 14° N 19:07:19 38° WNW 19:12:04 10° SW
CZ-4C R/B 4.2 19:11:45 10° NW 19:18:33 39° WSW 19:26:13 10° S
Lacrosse 5 rocket 3.6 19:18:41 10° WNW 19:20:27 23° W 19:20:27 23° W
Cosmos 2360 Rocket 3.7 19:31:19 10° NNW 19:33:59 29° NNW 19:33:59 29° NNW
ATLAS 2AS CENTAUR R/B 4.1 19:37:04 10° NW 19:41:27 27° N 19:41:27 27° N
Cosmos 2322 Rocket 3.7 19:52:06 10° NW 19:55:46 32° WNW 19:55:46 32° WNW
SL-16 R/B 4.3 20:11:16 10° NW 20:15:18 21° W 20:15:18 21° W
